RADUGA 10 [-]

Last updated on July 6, 2021, 3:35 p.m. UTC

1 12897U 81102A   21186.87620804 -.00000025  00000-0  00000-0 0  9990
2 12897  10.8100 312.4513 0005899 156.0263 200.8392  1.00251239 99210
UTC
Height (km)
Latitude
Longitude
Inclination
Orbital Period
UTC large
Height (km)
Speed (km/s)
/
Latitude / Longitude
Inclination (degrees)
Orbital Period (minutes)
Azimuth
Elevation
Range (km)
Doppler Factor
iOS Compass Heading
iOS Angle